Fergus Falls, MN

1:26 PM CDT on May 26, 2017 (GMT -0500)
Fergus Falls Municipal-Mickelson

Weather History for KFFM - January, 2013

Change the Weather History Date:

Friday, January 25, 2013

  Actual Average Record
Temperature  
Mean Temperature 2 °F -  
Max Temperature 12 °F 19 °F 55 °F (1981)
Min Temperature -7 °F -1 °F -27 °F (1982)
Degree Days  
Heating Degree Days 62    
Moisture  
Dew Point -4 °F    
Average Humidity 76    
Maximum Humidity 85    
Minimum Humidity 66    
Precipitation  
Precipitation 0.00 in - - ()
Sea Level Pressure  
Sea Level Pressure 30.12 in    
Wind  
Wind Speed 16 mph (NW)    
Max Wind Speed 29 mph    
Max Gust Speed 34 mph    
Visibility 7 miles    
Events Snow    
Averages and records for this station are not official NWS values.
T = Trace of Precipitation, MM = Missing Value Source: NWS Daily Summary

Daily Weather History Graph

Daily Weather History Graph

Search for Another Location

Airport or City:

Trip Planner

Search our weather history database for the weather conditions in past years. The results will help you decide how hot, cold, wet, or windy it might be!

Date:

Astronomy

Jan. 25, 2013 Rise Set
Actual Time 7:55 AM CST 5:19 PM CST
Civil Twilight 7:22 AM CST 5:52 PM CST
Nautical Twilight 6:45 AM CST 6:28 PM CST
Astronomical Twilight 6:10 AM CST 7:04 PM CST
Moon 4:17 PM CST (1/25) 6:36 AM CST (1/25)
Length of Visible Light 10h 29m
Length of Day
9h 24m
Waxing Gibbous, 98% of the Moon is Illuminated
Jan 25
Waxing Gibbous
Jan 26
Full
Feb 3
Last Quarter
Feb 10
New
Feb 17
First Quarter

Hourly Weather History & Observations

Time (CST) Temp. Windchill Dew Point Humidity Pressure Visibility Wind Dir Wind Speed Gust Speed Precip Events Conditions
12:13 AM 10.4 °F -5.4 °F 3.2 °F 73% 30.02 in 10.0 mi South 13.8 mph - N/A   Overcast
12:33 AM 10.4 °F -5.4 °F 3.2 °F 73% 30.01 in 10.0 mi South 13.8 mph - N/A   Overcast
12:53 AM 10.4 °F -6.0 °F 3.2 °F 73% 30.00 in 10.0 mi South 15.0 mph 18.4 mph N/A   Overcast
1:13 AM 10.4 °F -6.0 °F 3.2 °F 73% 29.99 in 10.0 mi SSW 15.0 mph - N/A   Overcast
1:53 AM 10.4 °F -6.6 °F 3.2 °F 73% 29.96 in 10.0 mi South 16.1 mph - N/A   Overcast
2:13 AM 10.4 °F -5.4 °F 5.0 °F 79% 29.95 in 10.0 mi SSW 13.8 mph - N/A   Overcast
2:54 AM 12.2 °F -1.8 °F 6.8 °F 79% 29.94 in 10.0 mi SW 11.5 mph - N/A   Overcast
3:13 AM 12.2 °F -1.0 °F 6.8 °F 79% 29.94 in 10.0 mi SW 10.4 mph - N/A   Overcast
3:33 AM 12.2 °F -1.0 °F 6.8 °F 79% 29.93 in 10.0 mi WSW 10.4 mph - N/A   Overcast
3:54 AM 12.2 °F -1.0 °F 6.8 °F 79% 29.93 in 10.0 mi West 10.4 mph - N/A Snow Light Snow
4:13 AM 12.2 °F -1.8 °F 8.6 °F 85% 29.93 in 10.0 mi West 11.5 mph - N/A Snow Light Snow
4:54 AM 12.2 °F -3.7 °F 8.6 °F 85% 29.92 in 3.0 mi WNW 15.0 mph - N/A Snow Light Snow
5:13 AM 12.2 °F -8.2 °F 6.8 °F 79% 29.92 in 5.0 mi WNW 26.5 mph 29.9 mph N/A   Haze
5:33 AM 8.6 °F -13.4 °F 3.2 °F 79% 29.93 in 3.0 mi NW 27.6 mph 31.1 mph N/A   Haze
5:53 AM 8.6 °F -13.1 °F 1.4 °F 73% 29.94 in 4.0 mi WNW 26.5 mph 29.9 mph N/A   Haze
6:13 AM 6.8 °F -15.1 °F -0.4 °F 72% 29.95 in 5.0 mi NW 25.3 mph - N/A   Haze
6:33 AM 6.8 °F -16.2 °F -0.4 °F 72% 29.96 in 4.0 mi NW 28.8 mph 34.5 mph N/A   Haze
6:53 AM 5.0 °F -16.7 °F -0.4 °F 78% 29.98 in 10.0 mi NW 23.0 mph - N/A   Mostly Cloudy
7:13 AM 3.2 °F -19.9 °F -2.2 °F 78% 29.99 in 4.0 mi NW 25.3 mph 32.2 mph N/A   Haze
7:33 AM 3.2 °F -19.5 °F -2.2 °F 78% 30.00 in 7.0 mi NW 24.2 mph 29.9 mph N/A   Mostly Cloudy
7:53 AM 3.2 °F -19.9 °F -2.2 °F 78% 30.01 in 5.0 mi NW 25.3 mph 29.9 mph N/A   Haze
8:13 AM 1.4 °F -20.5 °F -2.2 °F 85% 30.03 in 4.0 mi NW 20.7 mph - N/A   Haze
8:33 AM 1.4 °F -21.4 °F -2.2 °F 85% 30.04 in 2.0 mi NW 23.0 mph 29.9 mph N/A   Haze
8:53 AM 1.4 °F -21.0 °F -2.2 °F 85% 30.06 in 1.0 mi NNW 21.9 mph 28.8 mph N/A   Haze
9:13 AM 1.4 °F -22.7 °F -4.0 °F 78% 30.07 in 1.2 mi NW 26.5 mph 29.9 mph N/A   Haze
9:33 AM 1.4 °F -22.7 °F -5.8 °F 72% 30.08 in 1.2 mi NW 26.5 mph 32.2 mph N/A   Haze
9:53 AM 1.4 °F -21.4 °F -5.8 °F 72% 30.09 in 3.0 mi NNW 23.0 mph 32.2 mph N/A   Haze
10:13 AM 1.4 °F -21.9 °F -5.8 °F 72% 30.10 in 3.0 mi NNW 24.2 mph 29.9 mph N/A   Haze
10:33 AM 1.4 °F -21.4 °F -5.8 °F 72% 30.12 in 4.0 mi NNW 23.0 mph 31.1 mph N/A   Haze
10:53 AM 1.4 °F -21.0 °F -5.8 °F 72% 30.13 in 5.0 mi NNW 21.9 mph 27.6 mph N/A   Haze
11:13 AM 1.4 °F -21.4 °F -5.8 °F 72% 30.14 in 4.0 mi NW 23.0 mph - N/A   Haze
11:33 AM 1.4 °F -21.4 °F -5.8 °F 72% 30.15 in 2.0 mi NW 23.0 mph - N/A   Haze
11:53 AM 1.4 °F -20.5 °F -5.8 °F 72% 30.16 in 1.8 mi NNW 20.7 mph - N/A   Haze
12:13 PM 1.4 °F -21.9 °F -5.8 °F 72% 30.15 in 2.5 mi NNW 24.2 mph 28.8 mph N/A   Haze
12:33 PM 1.4 °F -21.4 °F -5.8 °F 72% 30.16 in 3.0 mi NNW 23.0 mph 28.8 mph N/A   Haze
12:53 PM 1.4 °F -19.9 °F -5.8 °F 72% 30.16 in 5.0 mi North 19.6 mph 26.5 mph N/A   Haze
1:13 PM 1.4 °F -19.9 °F -5.8 °F 72% 30.17 in 7.0 mi NNW 19.6 mph 25.3 mph N/A   Mostly Cloudy
1:33 PM 1.4 °F -21.0 °F -5.8 °F 72% 30.17 in 4.0 mi NNW 21.9 mph 27.6 mph N/A   Haze
1:53 PM 1.4 °F -20.5 °F -5.8 °F 72% 30.18 in 4.0 mi NNW 20.7 mph 25.3 mph N/A   Haze
2:13 PM 1.4 °F -18.8 °F -5.8 °F 72% 30.19 in 2.5 mi NNW 17.3 mph 23.0 mph N/A   Haze
2:34 PM 1.4 °F -18.8 °F -5.8 °F 72% 30.20 in 7.0 mi NNW 17.3 mph 21.9 mph N/A   Mostly Cloudy
2:53 PM 1.4 °F -16.1 °F -5.8 °F 72% 30.21 in 4.0 mi NNW 12.7 mph 18.4 mph N/A   Haze
3:13 PM 1.4 °F -17.6 °F -5.8 °F 72% 30.21 in 7.0 mi NNW 15.0 mph 20.7 mph N/A   Scattered Clouds
3:53 PM 1.4 °F -16.1 °F -7.6 °F 66% 30.22 in 10.0 mi NNW 12.7 mph 19.6 mph N/A   Clear
4:13 PM 1.4 °F -15.3 °F -5.8 °F 72% 30.23 in 10.0 mi North 11.5 mph 17.3 mph N/A   Scattered Clouds
4:53 PM -0.4 °F -19.2 °F -7.6 °F 72% 30.23 in 10.0 mi North 13.8 mph 18.4 mph N/A   Clear
5:13 PM -0.4 °F -16.7 °F -7.6 °F 72% 30.23 in 10.0 mi North 10.4 mph 17.3 mph N/A   Clear
5:34 PM -0.4 °F -15.7 °F -7.6 °F 72% 30.23 in 10.0 mi North 9.2 mph - N/A   Clear
5:53 PM -0.4 °F -17.6 °F -7.6 °F 72% 30.24 in 10.0 mi NNW 11.5 mph - N/A   Clear
6:13 PM -2.2 °F -16.8 °F -7.6 °F 78% 30.26 in 10.0 mi NNW 8.1 mph - N/A   Clear
6:34 PM -2.2 °F -18.9 °F -9.4 °F 71% 30.27 in 10.0 mi NNW 10.4 mph - N/A   Clear
6:53 PM -2.2 °F -19.9 °F -7.6 °F 78% 30.28 in 10.0 mi NNW 11.5 mph - N/A   Clear
7:13 PM -2.2 °F -19.9 °F -9.4 °F 71% 30.28 in 10.0 mi NNW 11.5 mph - N/A   Clear
7:53 PM -4.0 °F - -9.4 °F 78% 30.29 in 10.0 mi Calm Calm - N/A   Clear
8:13 PM -5.8 °F -18.4 °F -11.2 °F 77% 30.27 in 10.0 mi NW 5.8 mph - N/A   Clear
8:33 PM -5.8 °F -16.7 °F -11.2 °F 77% 30.27 in 10.0 mi NNW 4.6 mph - N/A   Clear
8:53 PM -5.8 °F - -11.2 °F 77% 30.27 in 10.0 mi Calm Calm - N/A   Clear
9:13 PM -5.8 °F -16.7 °F -11.2 °F 77% 30.29 in 10.0 mi NW 4.6 mph - N/A   Clear
9:33 PM -7.6 °F -18.8 °F -11.2 °F 84% 30.29 in 10.0 mi West 4.6 mph - N/A   Clear
9:53 PM -7.6 °F -18.8 °F -11.2 °F 84% 30.28 in 10.0 mi NW 4.6 mph - N/A   Clear
10:13 PM -7.6 °F -16.5 °F -11.2 °F 84% 30.28 in 10.0 mi North 3.5 mph - N/A   Clear
10:53 PM -7.6 °F -18.8 °F -11.2 °F 84% 30.31 in 10.0 mi NNW 4.6 mph - N/A   Clear
11:13 PM -7.6 °F -16.5 °F -13.0 °F 77% 30.31 in 10.0 mi NW 3.5 mph - N/A   Clear
11:33 PM -7.6 °F - -11.2 °F 84% 30.31 in 10.0 mi Calm Calm - N/A   Clear
11:53 PM -7.6 °F - -11.2 °F 84% 30.31 in 10.0 mi Calm Calm - N/A   Clear